TRA2615 LPMA-EHGG

Flight info

Callsign TRA2615
Flight time N/A
Altitude 36000
Route LAPPA DCT GALPA DCT NASAS DCT OLBOD DCT XAMAX DCT BALNO DCT RONSI N873 DELOG DCT YURZI UL14 TEPRA UN867 MOKOR UN873 BAZOS DCT CMB DCT ADUTO N873 GRONY
Aircraft B738/M-SDE2E3FGHIRWXY/LB1

Departure

Time N/A
Airport Cristiano Ronaldo International Airport (LPMA)

Arrival

Time 2026-04-30 10:27
Airport Groningen Airport Eelde (EHGG)
Time Latitude Longitude Altitude Speed Heading
2026-04-30 08:19 42.04154 -6.55846 36059 ft 483 kts 43°
2026-04-30 08:20 42.06503 -6.52617 36058 ft 483 kts 43°
2026-04-30 08:20 42.11189 -6.46162 36056 ft 482 kts 43°
2026-04-30 08:21 42.15876 -6.39692 36053 ft 482 kts 43°
2026-04-30 08:21 42.20555 -6.33219 36062 ft 481 kts 43°
2026-04-30 08:22 42.25223 -6.26744 36061 ft 481 kts 43°
2026-04-30 08:22 42.29882 -6.20270 36064 ft 480 kts 43°
2026-04-30 08:23 42.34532 -6.13792 36056 ft 480 kts 43°
2026-04-30 08:23 42.39177 -6.07308 36053 ft 480 kts 43°
2026-04-30 08:24 42.43809 -6.00826 36059 ft 479 kts 43°
2026-04-30 08:24 42.48439 -5.94333 36064 ft 479 kts 43°
2026-04-30 08:25 42.53057 -5.87842 36065 ft 478 kts 43°
2026-04-30 08:25 42.57669 -5.81344 36075 ft 478 kts 43°
2026-04-30 08:26 42.62266 -5.74852 36071 ft 477 kts 43°
2026-04-30 08:26 42.66860 -5.68350 36079 ft 476 kts 44°
2026-04-30 08:27 42.71438 -5.61856 36078 ft 475 kts 44°
2026-04-30 08:27 42.76007 -5.55361 36069 ft 475 kts 44°
2026-04-30 08:28 42.80561 -5.48871 36069 ft 474 kts 44°
2026-04-30 08:28 42.85112 -5.42371 36068 ft 474 kts 44°
2026-04-30 08:29 42.89653 -5.35871 36069 ft 473 kts 44°
2026-04-30 08:29 42.94188 -5.29364 36065 ft 472 kts 44°
2026-04-30 08:30 42.98711 -5.22861 36066 ft 472 kts 44°
2026-04-30 08:30 43.03224 -5.16355 36052 ft 472 kts 44°
2026-04-30 08:31 43.07730 -5.09846 36065 ft 471 kts 44°
2026-04-30 08:31 43.12223 -5.03339 36050 ft 470 kts 44°
2026-04-30 08:32 43.16704 -4.96836 36062 ft 469 kts 44°
2026-04-30 08:32 43.21183 -4.90321 36075 ft 470 kts 44°
2026-04-30 08:33 43.25664 -4.83789 36049 ft 470 kts 44°
2026-04-30 08:33 43.30134 -4.77255 36049 ft 469 kts 44°
2026-04-30 08:34 43.34595 -4.70720 36057 ft 468 kts 44°
2026-04-30 08:34 43.39043 -4.64190 36060 ft 467 kts 44°
2026-04-30 08:35 43.42730 -4.58766 36055 ft 466 kts 44°
2026-04-30 08:35 43.48041 -4.51460 36053 ft 462 kts 34°
2026-04-30 08:36 43.53539 -4.47102 36070 ft 454 kts 20°
2026-04-30 08:36 43.59348 -4.43685 36066 ft 454 kts 20°
2026-04-30 08:37 43.64217 -4.40826 36058 ft 454 kts 20°
2026-04-30 08:37 43.70019 -4.37353 36062 ft 454 kts 20°
2026-04-30 08:38 43.75771 -4.33868 36058 ft 455 kts 21°
2026-04-30 08:38 43.81564 -4.30343 36061 ft 455 kts 21°
2026-04-30 08:39 43.87357 -4.26812 36059 ft 455 kts 21°
2026-04-30 08:39 43.93152 -4.23274 36055 ft 455 kts 21°
2026-04-30 08:40 43.98947 -4.19729 36056 ft 455 kts 21°
2026-04-30 08:40 44.04749 -4.16172 36057 ft 456 kts 21°
2026-04-30 08:41 44.10551 -4.12607 36056 ft 456 kts 22°
2026-04-30 08:41 44.16352 -4.09035 36054 ft 456 kts 22°
2026-04-30 08:42 44.22153 -4.05455 36049 ft 456 kts 22°
2026-04-30 08:42 44.27954 -4.01867 36050 ft 456 kts 22°
2026-04-30 08:43 44.33734 -3.98217 36046 ft 456 kts 26°
2026-04-30 08:43 44.39297 -3.93939 36051 ft 457 kts 29°
2026-04-30 08:44 44.44794 -3.89482 36045 ft 457 kts 29°
2026-04-30 08:44 44.50299 -3.85043 36045 ft 456 kts 29°
2026-04-30 08:45 44.55813 -3.80635 36041 ft 456 kts 28°
2026-04-30 08:45 44.61332 -3.76236 36041 ft 456 kts 29°
2026-04-30 08:46 44.66853 -3.71826 36039 ft 457 kts 29°
2026-04-30 08:46 44.72373 -3.67407 36036 ft 457 kts 29°
2026-04-30 08:47 44.77905 -3.62968 36040 ft 458 kts 29°
2026-04-30 08:47 44.83446 -3.58511 36035 ft 459 kts 30°
2026-04-30 08:48 44.88996 -3.54037 36032 ft 460 kts 30°
2026-04-30 08:48 44.94558 -3.49542 36033 ft 461 kts 30°
2026-04-30 08:49 45.00092 -3.45060 36031 ft 462 kts 30°
2026-04-30 08:49 45.05701 -3.40507 36028 ft 462 kts 31°
2026-04-30 08:50 45.11235 -3.36005 36031 ft 462 kts 31°
2026-04-30 08:50 45.16799 -3.31468 36024 ft 461 kts 31°
2026-04-30 08:51 45.22351 -3.26931 36020 ft 460 kts 31°
2026-04-30 08:51 45.27881 -3.22401 36019 ft 458 kts 31°
2026-04-30 08:52 45.33389 -3.17879 36017 ft 457 kts 31°
2026-04-30 08:52 45.38882 -3.13360 36016 ft 455 kts 31°
2026-04-30 08:53 45.44357 -3.08844 36018 ft 454 kts 31°
2026-04-30 08:53 45.49819 -3.04330 36015 ft 454 kts 32°
2026-04-30 08:54 45.55276 -2.99809 36017 ft 453 kts 32°
2026-04-30 08:54 45.60731 -2.95279 36016 ft 454 kts 32°
2026-04-30 08:55 45.66188 -2.90738 36015 ft 454 kts 32°
2026-04-30 08:55 45.71653 -2.86179 36013 ft 455 kts 32°
2026-04-30 08:56 45.77120 -2.81608 36013 ft 456 kts 32°
2026-04-30 08:56 45.82595 -2.77020 36010 ft 456 kts 32°
2026-04-30 08:57 45.88076 -2.72417 36015 ft 457 kts 32°
2026-04-30 08:57 45.93559 -2.67800 36012 ft 457 kts 32°
2026-04-30 08:58 45.99046 -2.63170 36014 ft 457 kts 32°
2026-04-30 08:58 46.04531 -2.58531 36017 ft 457 kts 32°
2026-04-30 08:59 46.10010 -2.53885 36017 ft 457 kts 32°
2026-04-30 08:59 46.15532 -2.49336 36009 ft 459 kts 26°
2026-04-30 09:00 46.21650 -2.46716 36015 ft 462 kts
2026-04-30 09:00 46.28051 -2.45764 36019 ft 463 kts
2026-04-30 09:01 46.34454 -2.44848 36018 ft 462 kts
2026-04-30 09:01 46.40853 -2.43825 36017 ft 462 kts
2026-04-30 09:02 46.50326 -2.41483 36036 ft 459 kts 22°
2026-04-30 09:02 46.55988 -2.37353 36030 ft 455 kts 32°
2026-04-30 09:03 46.61460 -2.32697 36020 ft 456 kts 33°
2026-04-30 09:03 46.66954 -2.28073 36023 ft 457 kts 32°
2026-04-30 09:04 46.72473 -2.23482 36019 ft 457 kts 32°
2026-04-30 09:04 46.77997 -2.18892 36023 ft 457 kts 32°
2026-04-30 09:05 46.83529 -2.14279 36019 ft 458 kts 32°
2026-04-30 09:05 46.89022 -2.09688 36020 ft 458 kts 32°
2026-04-30 09:06 46.94766 -2.05490 36022 ft 460 kts 27°
2026-04-30 09:06 47.00499 -2.01484 36015 ft 458 kts 32°
2026-04-30 09:07 47.05662 -1.96108 36021 ft 455 kts 40°
2026-04-30 09:07 47.10658 -1.90405 36022 ft 455 kts 40°
2026-04-30 09:08 47.15707 -1.84785 36021 ft 455 kts 39°
2026-04-30 09:08 47.20782 -1.79195 36019 ft 456 kts 39°
2026-04-30 09:09 47.25854 -1.73605 36022 ft 455 kts 39°
2026-04-30 09:09 47.30917 -1.68001 36023 ft 456 kts 39°
2026-04-30 09:10 47.35752 -1.62008 36012 ft 452 kts 51°
2026-04-30 09:10 47.39634 -1.54768 36028 ft 450 kts 55°
2026-04-30 09:11 47.43426 -1.47423 36030 ft 450 kts 55°
2026-04-30 09:11 47.47253 -1.40092 36035 ft 450 kts 54°
2026-04-30 09:12 47.51098 -1.32778 36049 ft 450 kts 54°
2026-04-30 09:12 47.54943 -1.25459 36041 ft 451 kts 54°
2026-04-30 09:13 47.58760 -1.18171 36045 ft 451 kts 54°
2026-04-30 09:13 47.62593 -1.10830 36054 ft 450 kts 54°
2026-04-30 09:14 47.66421 -1.03478 36051 ft 450 kts 55°
2026-04-30 09:14 47.70240 -0.96125 36062 ft 450 kts 55°
2026-04-30 09:15 47.74056 -0.88760 36066 ft 450 kts 55°
2026-04-30 09:15 47.77867 -0.81394 36061 ft 449 kts 55°
2026-04-30 09:16 47.81666 -0.74034 36063 ft 448 kts 55°
2026-04-30 09:16 47.85446 -0.66688 36072 ft 447 kts 55°
2026-04-30 09:17 47.89215 -0.59344 36059 ft 446 kts 55°
2026-04-30 09:17 47.92976 -0.51994 36078 ft 445 kts 55°
2026-04-30 09:18 47.96725 -0.44646 36073 ft 445 kts 55°
2026-04-30 09:18 48.00466 -0.37296 36063 ft 445 kts 55°
2026-04-30 09:19 48.04182 -0.29976 36080 ft 445 kts 55°
2026-04-30 09:19 48.07954 -0.22551 36083 ft 445 kts 54°
2026-04-30 09:20 48.11732 -0.15269 36086 ft 446 kts 54°
2026-04-30 09:20 48.15545 -0.07939 36090 ft 446 kts 54°
2026-04-30 09:21 48.19348 -0.00587 36101 ft 446 kts 54°
2026-04-30 09:21 48.23144 0.06783 36089 ft 447 kts 54°
2026-04-30 09:22 48.26934 0.14168 36089 ft 446 kts 54°
2026-04-30 09:22 48.30715 0.21548 36088 ft 445 kts 54°
2026-04-30 09:23 48.33849 0.27687 36096 ft 445 kts 54°
2026-04-30 09:23 48.37608 0.35062 36093 ft 444 kts 54°
2026-04-30 09:24 48.41364 0.42417 36097 ft 443 kts 53°
2026-04-30 09:24 48.45139 0.49733 36099 ft 442 kts 53°
2026-04-30 09:25 48.48893 0.57034 36112 ft 440 kts 54°
2026-04-30 09:25 48.52803 0.64145 36108 ft 442 kts 45°
2026-04-30 09:26 48.57648 0.69879 36112 ft 444 kts 38°
2026-04-30 09:26 48.62630 0.75386 36123 ft 444 kts 38°
2026-04-30 09:27 48.67574 0.80971 36124 ft 444 kts 39°
2026-04-30 09:27 48.72504 0.86608 36129 ft 445 kts 39°
2026-04-30 09:28 48.77443 0.92273 36135 ft 445 kts 39°
2026-04-30 09:28 48.82380 0.97957 36144 ft 446 kts 39°
2026-04-30 09:29 48.87325 1.03669 36151 ft 447 kts 39°
2026-04-30 09:29 48.92269 1.09392 36156 ft 447 kts 39°
2026-04-30 09:30 48.97216 1.15134 36154 ft 447 kts 40°
2026-04-30 09:30 49.02158 1.20881 36156 ft 447 kts 40°
2026-04-30 09:31 49.06817 1.27092 36166 ft 444 kts 46°
2026-04-30 09:31 49.11221 1.33589 36157 ft 443 kts 46°
2026-04-30 09:32 49.15660 1.40102 36162 ft 442 kts 46°
2026-04-30 09:32 49.20113 1.46577 36163 ft 441 kts 46°
2026-04-30 09:33 49.24555 1.53041 36180 ft 440 kts 46°
2026-04-30 09:33 49.28988 1.59502 36181 ft 439 kts 46°
2026-04-30 09:34 49.33412 1.65947 36187 ft 439 kts 46°
2026-04-30 09:34 49.37824 1.72394 36203 ft 438 kts 46°
2026-04-30 09:35 49.42229 1.78851 36203 ft 437 kts 46°
2026-04-30 09:35 49.46624 1.85311 36206 ft 437 kts 46°
2026-04-30 09:36 49.51007 1.91767 36214 ft 436 kts 46°
2026-04-30 09:36 49.55195 1.98484 36212 ft 434 kts 50°
2026-04-30 09:37 49.59232 2.05399 36207 ft 434 kts 51°
2026-04-30 09:37 49.63270 2.12319 36208 ft 434 kts 50°
2026-04-30 09:38 49.67323 2.19221 36215 ft 434 kts 50°
2026-04-30 09:38 49.71378 2.26119 36216 ft 434 kts 50°
2026-04-30 09:39 49.75430 2.33024 36219 ft 434 kts 50°
2026-04-30 09:39 49.79477 2.39941 36221 ft 433 kts 50°
2026-04-30 09:40 49.83514 2.46860 36231 ft 432 kts 50°
2026-04-30 09:40 49.87537 2.53775 36229 ft 432 kts 50°
2026-04-30 09:41 49.91551 2.60694 36242 ft 431 kts 50°
2026-04-30 09:41 49.95552 2.67608 36244 ft 431 kts 50°
2026-04-30 09:42 49.99552 2.74538 36244 ft 431 kts 50°
2026-04-30 09:42 50.03547 2.81479 36234 ft 431 kts 50°
2026-04-30 09:43 50.07516 2.88394 36242 ft 431 kts 50°
2026-04-30 09:43 50.11510 2.95371 36232 ft 431 kts 50°
2026-04-30 09:44 50.15525 3.02405 36253 ft 432 kts 50°
2026-04-30 09:44 50.19490 3.09367 36254 ft 432 kts 50°
2026-04-30 09:45 50.23909 3.15748 36263 ft 437 kts 37°
2026-04-30 09:45 50.29325 3.20144 36265 ft 440 kts 27°
2026-04-30 09:46 50.34915 3.24085 36259 ft 441 kts 27°
2026-04-30 09:46 50.40485 3.28102 36279 ft 441 kts 28°
2026-04-30 09:47 50.46041 3.32180 36264 ft 441 kts 28°
2026-04-30 09:47 50.51593 3.36265 36257 ft 441 kts 27°
2026-04-30 09:48 50.57198 3.40180 36279 ft 441 kts 26°
2026-04-30 09:48 50.62836 3.44004 36283 ft 441 kts 26°
2026-04-30 09:49 50.68460 3.47852 36284 ft 441 kts 26°
2026-04-30 09:49 50.74071 3.51726 36298 ft 440 kts 26°
2026-04-30 09:50 50.79676 3.55611 36303 ft 439 kts 27°
2026-04-30 09:50 50.85268 3.59496 36304 ft 439 kts 27°
2026-04-30 09:51 50.90854 3.63385 36307 ft 438 kts 27°
2026-04-30 09:51 50.96412 3.67341 36308 ft 438 kts 27°
2026-04-30 09:52 51.01949 3.71351 36312 ft 437 kts 27°
2026-04-30 09:52 51.07478 3.75357 36315 ft 437 kts 27°
2026-04-30 09:53 51.13008 3.79366 36319 ft 436 kts 27°
2026-04-30 09:53 51.18532 3.83379 36320 ft 436 kts 27°
2026-04-30 09:54 51.24053 3.87400 36322 ft 436 kts 27°
2026-04-30 09:54 51.29572 3.91427 36331 ft 436 kts 27°
2026-04-30 09:55 51.35094 3.95466 36336 ft 436 kts 27°
2026-04-30 09:55 51.40611 3.99513 36336 ft 436 kts 27°
2026-04-30 09:56 51.46121 4.03565 36343 ft 436 kts 27°
2026-04-30 09:56 51.51627 4.07631 36339 ft 436 kts 27°
2026-04-30 09:57 51.57128 4.11719 36348 ft 435 kts 27°
2026-04-30 09:57 51.62592 4.15791 36344 ft 435 kts 27°
2026-04-30 09:58 51.68085 4.19893 36348 ft 435 kts 27°
2026-04-30 09:58 51.73611 4.24030 36367 ft 435 kts 27°
2026-04-30 09:59 51.84594 4.32255 36371 ft 435 kts 27°
2026-04-30 10:00 51.92817 4.38438 36372 ft 434 kts 27°
2026-04-30 10:01 51.99669 4.43611 36364 ft 434 kts 27°
2026-04-30 10:02 52.07803 4.49776 36374 ft 433 kts 27°
2026-04-30 10:02 52.13253 4.53921 36386 ft 432 kts 27°
2026-04-30 10:03 52.18663 4.58047 36400 ft 432 kts 28°
2026-04-30 10:03 52.24102 4.62205 36407 ft 432 kts 28°
2026-04-30 10:04 52.29535 4.66389 36400 ft 432 kts 28°
2026-04-30 10:04 52.34960 4.70586 36403 ft 432 kts 28°
2026-04-30 10:05 52.40388 4.74796 36401 ft 432 kts 28°
2026-04-30 10:05 52.45832 4.79028 35955 ft 438 kts 28°
2026-04-30 10:05 52.48580 4.81167 35408 ft 436 kts 28°
2026-04-30 10:06 52.51302 4.83376 34794 ft 435 kts 33°
2026-04-30 10:06 52.53777 4.86151 34388 ft 428 kts 40°
2026-04-30 10:06 52.55964 4.89399 33885 ft 422 kts 49°
2026-04-30 10:06 52.57817 4.93091 33431 ft 416 kts 53°
2026-04-30 10:07 52.59579 4.96836 32973 ft 412 kts 54°
2026-04-30 10:07 52.61319 5.00554 32540 ft 408 kts 53°
2026-04-30 10:07 52.62467 5.02994 32251 ft 406 kts 53°
2026-04-30 10:07 52.64216 5.06686 31816 ft 402 kts 53°
2026-04-30 10:08 52.65914 5.10246 31400 ft 399 kts 53°
2026-04-30 10:08 52.67622 5.13824 30978 ft 396 kts 53°
2026-04-30 10:08 52.69338 5.17426 30566 ft 393 kts 53°
2026-04-30 10:08 52.70987 5.20911 30102 ft 390 kts 53°
2026-04-30 10:09 52.72641 5.24418 29685 ft 385 kts 53°
2026-04-30 10:09 52.74280 5.27890 29258 ft 381 kts 53°
2026-04-30 10:09 52.75930 5.31287 28827 ft 378 kts 52°
2026-04-30 10:09 52.77575 5.34635 28403 ft 374 kts 52°
2026-04-30 10:10 52.79196 5.37961 27994 ft 370 kts 53°
2026-04-30 10:10 52.80777 5.41296 27573 ft 367 kts 53°
2026-04-30 10:10 52.82330 5.44616 27178 ft 364 kts 53°
2026-04-30 10:10 52.83868 5.47917 26767 ft 361 kts 53°
2026-04-30 10:11 52.85394 5.51194 26368 ft 358 kts 54°
2026-04-30 10:11 52.86912 5.54453 25975 ft 356 kts 53°
2026-04-30 10:11 52.88420 5.57692 25579 ft 354 kts 53°
2026-04-30 10:11 52.89919 5.60913 25187 ft 353 kts 53°
2026-04-30 10:12 52.91412 5.64121 24786 ft 351 kts 53°
2026-04-30 10:12 52.92898 5.67318 24399 ft 349 kts 53°
2026-04-30 10:12 52.94375 5.70499 24022 ft 348 kts 53°
2026-04-30 10:12 52.95846 5.73672 23550 ft 346 kts 53°
2026-04-30 10:13 52.97305 5.76822 23134 ft 344 kts 54°
2026-04-30 10:13 52.98752 5.79950 22750 ft 340 kts 54°
2026-04-30 10:13 53.00187 5.83057 22353 ft 338 kts 54°
2026-04-30 10:13 53.01608 5.86137 21982 ft 334 kts 54°
2026-04-30 10:14 53.03017 5.89194 21584 ft 332 kts 54°
2026-04-30 10:14 53.04412 5.92226 21233 ft 329 kts 54°
2026-04-30 10:14 53.07174 5.98235 20486 ft 325 kts 54°
2026-04-30 10:15 53.08539 6.01211 20124 ft 323 kts 54°
2026-04-30 10:15 53.09870 6.04198 19754 ft 320 kts 60°
2026-04-30 10:15 53.10735 6.07560 19413 ft 316 kts 76°
2026-04-30 10:15 53.11155 6.11126 19091 ft 313 kts 80°
2026-04-30 10:16 53.11471 6.14444 18772 ft 311 kts 81°
2026-04-30 10:16 53.11794 6.17997 18396 ft 309 kts 81°
2026-04-30 10:16 53.12117 6.21516 18045 ft 306 kts 81°
2026-04-30 10:17 53.12771 6.28478 17332 ft 302 kts 81°
2026-04-30 10:17 53.13429 6.35339 16626 ft 298 kts 81°
2026-04-30 10:17 53.13756 6.38735 16276 ft 297 kts 81°
2026-04-30 10:18 53.14080 6.42118 15932 ft 295 kts 80°
2026-04-30 10:18 53.14403 6.45480 15596 ft 294 kts 81°
2026-04-30 10:18 53.14724 6.48835 15246 ft 292 kts 81°
2026-04-30 10:19 53.15361 6.55493 14570 ft 290 kts 81°
2026-04-30 10:19 53.15675 6.58807 14222 ft 289 kts 81°
2026-04-30 10:19 53.15987 6.62107 13844 ft 288 kts 81°
2026-04-30 10:19 53.16320 6.65387 13476 ft 287 kts 76°
2026-04-30 10:20 53.17113 6.68411 13137 ft 285 kts 58°
2026-04-30 10:20 53.19422 6.73703 12435 ft 283 kts 56°
2026-04-30 10:20 53.20598 6.76384 12076 ft 282 kts 56°
2026-04-30 10:21 53.21723 6.79005 11753 ft 280 kts 60°
2026-04-30 10:21 53.22391 6.81969 11560 ft 272 kts 81°
2026-04-30 10:21 53.22421 6.85106 11292 ft 273 kts 97°
2026-04-30 10:21 53.21904 6.88184 11008 ft 279 kts 112°
2026-04-30 10:22 53.20844 6.90910 10841 ft 279 kts 129°
2026-04-30 10:22 53.19388 6.92925 9893 ft 278 kts 146°
2026-04-30 10:22 53.17482 6.94074 8109 ft 306 kts 166°
2026-04-30 10:22 53.15301 6.94015 6422 ft 326 kts 191°
2026-04-30 10:23 53.13255 6.92274 4701 ft 338 kts 213°
2026-04-30 10:23 53.11620 6.89626 3667 ft 326 kts 239°
2026-04-30 10:23 53.11273 6.85998 2608 ft 318 kts 282°
2026-04-30 10:23 53.12205 6.82910 2253 ft 283 kts 309°
2026-04-30 10:24 53.13425 6.80540 1966 ft 259 kts 315°
2026-04-30 10:24 53.14559 6.78353 1812 ft 242 kts 310°
2026-04-30 10:24 53.15493 6.76120 1497 ft 226 kts 299°
2026-04-30 10:24 53.16001 6.73767 1313 ft 208 kts 285°
2026-04-30 10:25 53.16324 6.71463 1193 ft 197 kts 282°
2026-04-30 10:25 53.16434 6.69304 1337 ft 177 kts 265°
2026-04-30 10:25 53.16247 6.67393 1429 ft 157 kts 250°
2026-04-30 10:25 53.15743 6.65748 1337 ft 163 kts 229°
2026-04-30 10:26 53.15034 6.64234 1134 ft 169 kts 225°
2026-04-30 10:26 53.14256 6.62686 781 ft 181 kts 225°
2026-04-30 10:26 53.13476 6.61062 425 ft 177 kts 226°
2026-04-30 10:26 53.12733 6.59495 160 ft 170 kts 226°
2026-04-30 10:27 53.12013 6.58002 25 ft 155 kts 227°
2026-04-30 10:27 53.11595 6.57139 23 ft 56 kts 233°
2026-04-30 10:27 53.11555 6.56851 21 ft 17 kts 308°
2026-04-30 10:27 53.11694 6.56851 20 ft 23 kts 37°
2026-04-30 10:28 53.11792 6.57048 20 ft 22 kts 52°
2026-04-30 10:28 53.11884 6.57243 21 ft 21 kts 51°
2026-04-30 10:28 53.11976 6.57436 20 ft 22 kts 52°
2026-04-30 10:28 53.12069 6.57643 20 ft 22 kts 52°
2026-04-30 10:29 53.12181 6.57799 20 ft 22 kts 11°
2026-04-30 10:29 53.12327 6.57835 22 ft 21 kts
2026-04-30 10:29 53.12445 6.57960 20 ft 22 kts 51°
2026-04-30 10:29 53.12536 6.58153 20 ft 21 kts 53°
2026-04-30 10:30 53.12628 6.58351 20 ft 14 kts 51°
2026-04-30 10:30 53.12708 6.58398 20 ft 12 kts 349°
2026-04-30 10:30 53.12742 6.58475 20 ft 0 kts 123°
2026-04-30 10:30 53.12739 6.58477 20 ft 0 kts 141°